When you browse on this site, cookies collect data to enhance your experience and personalize the content and advertising you see.
Visit our Privacy Policy to learn more. By continuing to use the site, you agree to this use of cookies and data.
  • In Austria
  • List of Countries
  • For 7 days
  • Water Temperature
  • Weather Map
  • News
  • Weather Widgets
  • user-avatar
    Login

    Hourly Weather Oita

    Today, 20 August, Tuesday

    Time Temperature Precipitation Wind Pressure Humidity
    00:00 +24°C° 0.2 mm 0 mps 751 mmHg 95%
    01:00 +26°C° 0.6 mm 1 mps 751 mmHg 95%
    02:00 +26°C° 0.6 mm 1 mps 751 mmHg 95%
    03:00 +26°C° 0 mm 1 mps 751 mmHg 95%
    04:00 +26°C° 0.2 mm 1 mps 751 mmHg 95%
    05:00 +26°C° 0.2 mm 1 mps 751 mmHg 95%
    06:00 +24°C° 0.2 mm 0 mps 751 mmHg 95%
    07:00 +25°C° 0 mm 0 mps 751 mmHg 93%
    08:00 +26°C° 0 mm 0 mps 751 mmHg 91%
    09:00 +29°C° 0 mm 1 mps 752 mmHg 89%
    10:00 +30°C° 0.1 mm 1 mps 752 mmHg 86%
    11:00 +31°C° 0.1 mm 1 mps 751 mmHg 83%
    12:00 +31°C° 0.1 mm 1 mps 751 mmHg 80%
    13:00 +31°C° 0.6 mm 1 mps 751 mmHg 82%
    14:00 +31°C° 0.6 mm 1 mps 751 mmHg 85%
    15:00 +31°C° 0 mm 1 mps 751 mmHg 85%
    16:00 +30°C° 0.5 mm 1 mps 751 mmHg 86%
    17:00 +30°C° 0.5 mm 1 mps 751 mmHg 87%
    18:00 +28°C° 0.5 mm 0 mps 751 mmHg 88%
    19:00 +29°C° 0.3 mm 1 mps 751 mmHg 89%
    20:00 +28°C° 0.3 mm 1 mps 752 mmHg 91%
    21:00 +28°C° 0.3 mm 1 mps 752 mmHg 92%
    22:00 +28°C° 0 mm 1 mps 752 mmHg 92%
    23:00 +27°C° 0 mm 1 mps 752 mmHg 92%

    Tomorrow, 21 August, Wednesday

    Time Temperature Precipitation Wind Pressure Humidity
    00:00 +27°C° 0 mm 1 mps 752 mmHg 93%
    01:00 +27°C° 0 mm 1 mps 751 mmHg 92%
    02:00 +27°C° 0 mm 1 mps 751 mmHg 92%
    03:00 +27°C° 0 mm 1 mps 751 mmHg 92%
    04:00 +27°C° 0 mm 1 mps 751 mmHg 92%
    05:00 +25°C° 0 mm 0 mps 751 mmHg 92%
    06:00 +25°C° 0 mm 0 mps 752 mmHg 91%
    07:00 +26°C° 0 mm 0 mps 752 mmHg 86%
    08:00 +28°C° 0 mm 0 mps 752 mmHg 81%
    09:00 +29°C° 0 mm 0 mps 752 mmHg 77%
    10:00 +33°C° 0 mm 1 mps 752 mmHg 71%
    11:00 +34°C° 0 mm 1 mps 752 mmHg 65%
    12:00 +35°C° 0 mm 1 mps 752 mmHg 59%
    13:00 +35°C° 0.6 mm 2 mps 752 mmHg 64%
    14:00 +34°C° 0.6 mm 2 mps 751 mmHg 70%
    15:00 +34°C° 0.6 mm 2 mps 751 mmHg 76%
    16:00 +32°C° 0.5 mm 1 mps 751 mmHg 79%
    17:00 +31°C° 0.5 mm 1 mps 751 mmHg 82%
    18:00 +31°C° 0.5 mm 1 mps 751 mmHg 84%
    19:00 +30°C° 0 mm 1 mps 752 mmHg 86%
    20:00 +29°C° 0 mm 1 mps 752 mmHg 87%
    21:00 +28°C° 0 mm 1 mps 752 mmHg 89%
    22:00 +27°C° 0 mm 1 mps 752 mmHg 89%
    23:00 +27°C° 0 mm 1 mps 752 mmHg 89%

    Day after tomorrow, 22 August, Thursday

    Time Temperature Precipitation Wind Pressure Humidity
    00:00 +27°C° 0 mm 1 mps 752 mmHg 89%
    01:00 +26°C° 0 mm 1 mps 752 mmHg 89%
    02:00 +26°C° 0 mm 1 mps 752 mmHg 89%
    03:00 +26°C° 0 mm 1 mps 752 mmHg 89%
    04:00 +26°C° 0 mm 1 mps 752 mmHg 89%
    05:00 +26°C° 0 mm 1 mps 752 mmHg 89%
    06:00 +26°C° 0 mm 1 mps 752 mmHg 89%
    07:00 +26°C° 0 mm 0 mps 752 mmHg 83%
    08:00 +28°C° 0 mm 0 mps 752 mmHg 77%
    09:00 +30°C° 0 mm 0 mps 752 mmHg 71%
    10:00 +33°C° 0 mm 1 mps 751 mmHg 67%
    11:00 +33°C° 0 mm 1 mps 751 mmHg 63%
    12:00 +35°C° 0 mm 2 mps 751 mmHg 59%
    13:00 +35°C° 0.1 mm 2 mps 751 mmHg 61%
    14:00 +35°C° 0.1 mm 3 mps 750 mmHg 63%
    15:00 +34°C° 0.1 mm 3 mps 750 mmHg 65%
    16:00 +33°C° 0.4 mm 3 mps 750 mmHg 71%
    17:00 +31°C° 0.4 mm 2 mps 750 mmHg 77%
    18:00 +30°C° 0.4 mm 2 mps 750 mmHg 84%
    19:00 +29°C° 0 mm 2 mps 750 mmHg 85%
    20:00 +28°C° 0 mm 2 mps 750 mmHg 87%
    21:00 +28°C° 0 mm 2 mps 750 mmHg 88%
    22:00 +27°C° 0 mm 2 mps 750 mmHg 88%
    23:00 +27°C° 0 mm 2 mps 750 mmHg 89%

    23 August, Friday

    Time Temperature Precipitation Wind Pressure Humidity
    00:00 +27°C° 0 mm 1 mps 750 mmHg 89%
    01:00 +27°C° 0 mm 1 mps 750 mmHg 89%
    02:00 +27°C° 0 mm 1 mps 749 mmHg 89%
    03:00 +26°C° 0 mm 1 mps 749 mmHg 90%
    04:00 +26°C° 0 mm 1 mps 749 mmHg 90%
    05:00 +26°C° 0 mm 1 mps 749 mmHg 90%
    06:00 +26°C° 0 mm 1 mps 749 mmHg 90%
    07:00 +28°C° 0 mm 1 mps 749 mmHg 83%
    08:00 +30°C° 0 mm 1 mps 749 mmHg 76%
    09:00 +32°C° 0 mm 1 mps 750 mmHg 69%
    10:00 +34°C° 0 mm 2 mps 749 mmHg 64%
    11:00 +35°C° 0 mm 2 mps 749 mmHg 58%
    12:00 +37°C° 0 mm 2 mps 749 mmHg 53%
    13:00 +36°C° 0.2 mm 2 mps 749 mmHg 57%
    14:00 +35°C° 0.2 mm 2 mps 749 mmHg 61%
    15:00 +35°C° 0.2 mm 2 mps 748 mmHg 65%
    16:00 +34°C° 0.6 mm 2 mps 748 mmHg 71%
    17:00 +32°C° 0.6 mm 1 mps 748 mmHg 76%
    18:00 +31°C° 0.6 mm 1 mps 748 mmHg 82%
    19:00 +30°C° 0.2 mm 1 mps 748 mmHg 84%
    20:00 +29°C° 0.2 mm 1 mps 749 mmHg 86%
    21:00 +27°C° 0.2 mm 1 mps 749 mmHg 88%
    22:00 +27°C° 0 mm 1 mps 749 mmHg 89%
    23:00 +27°C° 0 mm 1 mps 749 mmHg 90%

    24 August, Saturday

    Time Temperature Precipitation Wind Pressure Humidity
    00:00 +27°C° 0 mm 1 mps 749 mmHg 90%
    01:00 +26°C° 0 mm 1 mps 748 mmHg 91%
    02:00 +26°C° 0 mm 1 mps 748 mmHg 91%
    03:00 +24°C° 0 mm 0 mps 748 mmHg 91%
    04:00 +24°C° 0 mm 0 mps 748 mmHg 91%
    05:00 +24°C° 0 mm 0 mps 748 mmHg 92%
    06:00 +26°C° 0 mm 1 mps 748 mmHg 92%
    07:00 +27°C° 0 mm 1 mps 748 mmHg 87%
    08:00 +29°C° 0 mm 1 mps 748 mmHg 81%
    09:00 +31°C° 0 mm 1 mps 748 mmHg 76%
    10:00 +31°C° 0.1 mm 1 mps 748 mmHg 74%
    11:00 +31°C° 0.1 mm 2 mps 747 mmHg 72%
    12:00 +32°C° 0.1 mm 2 mps 747 mmHg 71%
    13:00 +31°C° 0.6 mm 2 mps 747 mmHg 74%
    14:00 +31°C° 0.6 mm 2 mps 746 mmHg 78%
    15:00 +30°C° 0.6 mm 2 mps 746 mmHg 81%
    16:00 +30°C° 0.3 mm 2 mps 746 mmHg 79%
    17:00 +29°C° 0.3 mm 3 mps 746 mmHg 78%
    18:00 +29°C° 0.3 mm 3 mps 746 mmHg 76%
    19:00 +28°C° 0 mm 3 mps 747 mmHg 78%
    20:00 +27°C° 0 mm 3 mps 748 mmHg 79%
    21:00 +25°C° 0 mm 3 mps 748 mmHg 81%
    22:00 +25°C° 0 mm 3 mps 748 mmHg 81%
    23:00 +25°C° 0 mm 3 mps 748 mmHg 81%

    25 August, Sunday

    Time Temperature Precipitation Wind Pressure Humidity
    00:00 +24°C° 0 mm 3 mps 748 mmHg 82%
    01:00 +24°C° 0 mm 2 mps 748 mmHg 82%
    02:00 +24°C° 0 mm 2 mps 748 mmHg 82%
    03:00 +23°C° 0 mm 2 mps 748 mmHg 82%
    04:00 +23°C° 0 mm 2 mps 749 mmHg 82%
    05:00 +23°C° 0 mm 2 mps 749 mmHg 83%
    06:00 +23°C° 0 mm 2 mps 749 mmHg 83%
    07:00 +25°C° 0 mm 3 mps 749 mmHg 77%
    08:00 +26°C° 0 mm 3 mps 750 mmHg 72%
    09:00 +28°C° 0 mm 3 mps 750 mmHg 66%
    10:00 +29°C° 0 mm 3 mps 750 mmHg 62%
    11:00 +30°C° 0 mm 3 mps 750 mmHg 57%
    12:00 +31°C° 0 mm 3 mps 750 mmHg 53%
    13:00 +31°C° 0 mm 3 mps 750 mmHg 53%
    14:00 +30°C° 0 mm 3 mps 749 mmHg 53%
    15:00 +30°C° 0 mm 3 mps 749 mmHg 54%
    16:00 +29°C° 0 mm 3 mps 749 mmHg 60%
    17:00 +28°C° 0 mm 2 mps 749 mmHg 66%
    18:00 +28°C° 0 mm 2 mps 749 mmHg 72%
    19:00 +26°C° 0 mm 2 mps 750 mmHg 75%
    20:00 +25°C° 0 mm 2 mps 750 mmHg 78%
    21:00 +24°C° 0 mm 2 mps 750 mmHg 81%
    22:00 +24°C° 0 mm 2 mps 750 mmHg 81%
    23:00 +24°C° 0 mm 2 mps 750 mmHg 81%
    Show more